Location: Banff
(51.1667°N, 115.5667°W)
Time: 12:16:10
(UTC+00:00)

Vanguard 1 Rocket - Pass Details

Date: 30 November 2020
Orbit: 655 x 4222 km, 34.3° (Epoch: 23 January)

Event Time Altitude Azimuth Distance (km) Brightness Sun altitude
Rises 06:00:43 0° 190° (S) 7,843 - -55.7°
Reaches altitude 10° 06:08:01 10° 177° (S) 7,181 - -56.4°
Maximum altitude 06:24:29 22° 136° (SE) 6,355 - -57.8°
Drops below altitude 10° 06:39:55 10° 96° (E) 6,808 - -58.9°
Exits shadow 06:41:46 - 92° (E) 6,951 11.7 -59.0°
Sets 06:46:19 0° 84° (E) 7,374 12.0 -59.3°
